Record,Date/Time,10,Freq,Alpha,dTdG,K1,K2,K3,K4,Tnd
     1,10/10/2005 00:01:02,11, 22.235, 1.079400,-253105.20,  0.36354100E+02, -0.50077974E+00,  0.21625152E-02, -0.29929683E-05, 185.96
     2,10/10/2005 00:01:02,11, 23.035, 1.076300,-269345.11, -0.30101433E+02,  0.37141337E+00, -0.15018781E-02,  0.19967815E-05, 167.06
     3,10/10/2005 00:01:02,11, 23.835, 1.072130,-303635.66,  0.13932152E+03, -0.14943800E+01,  0.52209616E-02, -0.59467052E-05, 192.38
     4,10/10/2005 00:01:02,11, 26.235, 1.059950,-312279.46,  0.37163439E+03, -0.39505005E+01,  0.13866918E-01, -0.16080899E-04, 187.52
     5,10/10/2005 00:01:02,11, 30.000, 1.035430,-426327.00, -0.19958745E+01, -0.32907695E-01,  0.30381530E-03, -0.57451149E-06,  96.45
Record,Date/Time,20,TkBB(K),Tnd(K) Ch  1,R Ch  1,Tnd(K) Ch  2,R Ch  2,Tnd(K) Ch  3,R Ch  3,Tnd(K) Ch  4,R Ch  4,Tnd(K) Ch  5,R Ch  5
     6,10/10/2005 00:01:02,21,296.779, 188.313, 0.988159, 168.775, 0.984085, 192.710, 0.983274, 186.979, 0.987321,  95.495, 0.989802
     7,10/10/2005 00:38:04,21,296.578, 186.870, 0.990410, 168.204, 0.986732, 192.946, 0.992015, 187.422, 0.993597,  95.262, 0.989385
     8,10/10/2005 00:39:04,21,296.567, 187.543, 0.996950, 168.554, 0.991919, 192.716, 0.991105, 186.771, 0.990217,  94.936, 0.989007
     9,10/10/2005 00:41:04,21,296.535, 183.705, 0.990356, 165.516, 0.987007, 191.025, 0.988752, 186.618, 0.992996,  95.100, 0.996422
    10,10/10/2005 00:42:04,21,296.554, 187.628, 0.992469, 168.751, 0.992647, 193.402, 0.995500, 188.382, 0.998197,  95.815, 0.998174
    11,10/10/2005 00:43:04,21,296.567, 184.628, 0.995169, 165.590, 0.991329, 189.782, 0.991887, 185.500, 0.992693,  94.631, 0.990105
    12,10/10/2005 00:44:04,21,296.562, 186.477, 0.990019, 168.168, 0.983733, 192.810, 0.985873, 187.379, 0.990951,  95.327, 0.991745
    13,10/10/2005 00:45:04,21,296.557, 184.548, 0.996832, 165.780, 0.991758, 189.990, 0.992672, 185.464, 0.995046,  94.366, 0.995664
    14,10/10/2005 00:46:04,21,296.563, 186.300, 0.996145, 167.117, 0.990517, 191.054, 0.987746, 185.259, 0.985398,  94.293, 0.984751
    15,10/10/2005 00:47:04,21,296.550, 184.776, 0.986284, 166.160, 0.985723, 190.698, 0.990387, 185.678, 0.993600,  94.606, 0.996833
    16,10/10/2005 00:48:04,21,296.564, 184.507, 0.996548, 166.071, 0.991154, 190.472, 0.989912, 185.913, 0.990286,  94.691, 0.990699
    17,10/10/2005 00:49:04,21,296.562, 186.922, 0.996236, 168.404, 0.992982, 192.724, 0.990397, 187.808, 0.990139,  95.638, 0.985587
    18,10/10/2005 00:50:04,21,296.558, 186.644, 0.996302, 167.436, 0.988688, 191.386, 0.986716, 186.119, 0.986604,  95.135, 0.988178
    19,10/10/2005 00:53:04,21,296.577, 184.346, 0.981187, 166.388, 0.981049, 190.924, 0.986675, 186.120, 0.989623,  95.006, 0.992691
    20,10/10/2005 00:55:04,21,296.572, 186.477, 0.980724, 167.731, 0.981226, 192.584, 0.986209, 187.397, 0.985840,  95.345, 0.980564
    21,10/10/2005 00:56:04,21,296.577, 185.305, 0.984226, 167.047, 0.985626, 192.433, 0.990719, 188.054, 0.995679,  96.327, 0.998383
    22,10/10/2005 00:57:04,21,296.580, 187.396, 0.998269, 168.574, 0.996486, 193.990, 0.997324, 188.419, 0.998061,  96.358, 0.998040
    23,10/10/2005 00:58:04,21,296.589, 188.533, 0.991505, 169.412, 0.992899, 193.872, 0.995256, 188.806, 0.999441,  96.518, 0.994674
    24,10/10/2005 00:59:04,21,296.589, 186.432, 0.998418, 167.541, 0.994936, 191.961, 0.996039, 187.310, 0.995959,  95.665, 0.996002
    25,10/10/2005 01:00:04,21,296.589, 186.279, 0.993801, 166.589, 0.990573, 190.425, 0.993906, 186.142, 0.995063,  95.041, 0.995047
    26,10/10/2005 01:01:04,21,296.590, 185.364, 0.990697, 166.336, 0.985607, 190.492, 0.988187, 186.510, 0.989310,  95.400, 0.984812
    27,10/10/2005 01:02:04,21,296.572, 187.598, 0.988581, 168.598, 0.989565, 193.486, 0.990929, 189.206, 0.994146,  96.631, 0.991292
    28,10/10/2005 01:03:04,21,296.594, 186.780, 0.990977, 168.066, 0.989063, 192.998, 0.991316, 187.676, 0.995684,  95.900, 0.995715
    29,10/10/2005 01:04:04,21,296.600, 187.242, 0.988210, 168.101, 0.988437, 192.854, 0.993010, 187.496, 0.997986,  95.784, 0.999009
    30,10/10/2005 01:05:04,21,296.604, 187.322, 0.993819, 169.569, 0.991755, 194.305, 0.993958, 188.984, 0.995281,  96.673, 0.991757
    31,10/10/2005 01:17:04,21,296.593, 184.919, 0.993540, 166.391, 0.990705, 190.992, 0.990862, 186.894, 0.994909,  95.585, 0.995904
    32,10/10/2005 01:18:04,21,296.578, 184.464, 0.996103, 166.355, 0.993902, 191.096, 0.995039, 186.519, 0.995825,  95.168, 0.996634
    33,10/10/2005 01:19:04,21,296.566, 186.593, 0.990397, 167.889, 0.983826, 192.517, 0.987639, 187.508, 0.991863,  95.798, 0.989480
    34,10/10/2005 01:20:04,21,296.575, 188.459, 0.994571, 169.237, 0.990769, 193.979, 0.990321, 188.242, 0.992793,  95.918, 0.985716
    35,10/10/2005 01:22:04,21,296.573, 187.853, 0.985796, 169.045, 0.982808, 193.790, 0.985481, 187.947, 0.991208,  95.938, 0.986817
    36,10/10/2005 01:29:04,21,296.541, 188.237, 0.989536, 169.216, 0.986455, 193.834, 0.987684, 188.244, 0.988297,  95.871, 0.986227
    37,10/10/2005 01:30:04,21,296.538, 187.350, 0.992761, 168.735, 0.989751, 193.425, 0.993039, 187.675, 0.995662,  95.555, 0.995400
    38,10/10/2005 01:31:04,21,296.537, 186.143, 0.993858, 167.461, 0.991067, 191.937, 0.993207, 187.603, 0.997200,  95.599, 0.997448
    39,10/10/2005 01:32:04,21,296.544, 186.363, 0.997141, 167.409, 0.991138, 191.779, 0.990048, 186.602, 0.989583,  95.539, 0.988360
    40,10/10/2005 01:33:04,21,296.543, 187.247, 0.989203, 168.743, 0.989673, 193.475, 0.993393, 188.311, 0.996756,  95.915, 0.997766
    41,10/10/2005 01:35:04,21,296.541, 186.090, 0.992867, 167.527, 0.988274, 192.508, 0.984583, 187.764, 0.983527,  95.960, 0.981004
    42,10/10/2005 01:36:04,21,296.518, 185.818, 0.989746, 166.766, 0.982125, 192.038, 0.981880, 186.849, 0.984296,  95.305, 0.984809
    43,10/10/2005 01:49:04,21,296.487, 187.025, 0.996834, 167.882, 0.991835, 192.412, 0.992909, 187.747, 0.993665,  96.020, 0.995595
    44,10/10/2005 01:50:04,21,296.494, 187.411, 0.993515, 167.614, 0.989590, 191.333, 0.991201, 186.319, 0.993925,  94.970, 0.993406
    45,10/10/2005 01:51:04,21,296.487, 187.129, 0.991555, 169.387, 0.989800, 194.729, 0.991748, 189.295, 0.994893,  96.408, 0.994109
    46,10/10/2005 01:53:04,21,296.485, 185.818, 0.993256, 167.228, 0.988584, 191.730, 0.988495, 186.501, 0.989652,  95.320, 0.991716
    47,10/10/2005 01:54:04,21,296.484, 184.669, 0.991624, 166.559, 0.984473, 191.278, 0.983732, 186.742, 0.988660,  95.421, 0.991809
    48,10/10/2005 02:09:04,21,296.500, 185.071, 0.988813, 167.190, 0.983899, 192.170, 0.985463, 187.695, 0.986232,  95.938, 0.984788
    49,10/10/2005 02:11:04,21,296.491, 184.601, 0.998288, 165.694, 0.996715, 189.633, 0.996394, 184.657, 0.994706,  93.879, 0.992858
    50,10/10/2005 02:12:04,21,296.502, 186.249, 0.999461, 167.590, 0.998541, 192.493, 0.999668, 187.147, 0.997578,  95.145, 0.988749
    51,10/10/2005 02:13:04,21,296.493, 185.162, 0.994129, 165.943, 0.992499, 189.649, 0.994700, 185.465, 0.998892,  94.950, 0.997758
    52,10/10/2005 02:15:04,21,296.499, 186.833, 0.989670, 167.079, 0.989969, 190.473, 0.992555, 184.898, 0.990126,  94.272, 0.988090
    53,10/10/2005 02:16:04,21,296.523, 184.706, 0.996806, 166.281, 0.995117, 191.349, 0.996973, 186.600, 0.999101,  95.471, 0.998875
    54,10/10/2005 02:17:04,21,296.525, 184.874, 0.995173, 166.452, 0.991991, 191.118, 0.990941, 185.696, 0.992357,  94.356, 0.993249
    55,10/10/2005 02:18:04,21,296.533, 185.663, 0.994844, 166.592, 0.998287, 191.115, 0.999898, 185.289, 0.992818,  94.360, 0.980295
    56,10/10/2005 02:19:04,21,296.527, 186.019, 0.998065, 168.156, 0.998906, 193.168, 0.999645, 188.004, 0.993405,  95.680, 0.986817
    57,10/10/2005 02:21:04,21,296.553, 183.483, 0.993361, 164.856, 0.985175, 189.431, 0.981492, 185.786, 0.980878,  95.380, 0.981125
    58,10/10/2005 02:22:04,21,296.549, 185.987, 0.991499, 167.491, 0.989373, 192.203, 0.988068, 186.856, 0.988785,  95.298, 0.992118
    59,10/10/2005 02:25:04,21,296.555, 188.175, 0.997859, 169.349, 0.996651, 193.130, 0.998025, 188.418, 0.997161,  96.025, 0.995277
    60,10/10/2005 02:26:04,21,296.569, 187.882, 0.999845, 169.074, 0.997725, 193.960, 0.997734, 189.248, 0.999736,  96.838, 0.991220
    61,10/10/2005 02:27:04,21,296.580, 188.757, 0.997512, 170.432, 0.993298, 195.446, 0.992315, 189.657, 0.992393,  96.680, 0.989576
    62,10/10/2005 02:28:05,21,296.577, 185.088, 0.997581, 166.936, 0.996690, 192.288, 0.998675, 188.374, 0.999374,  96.382, 0.994270
    63,10/10/2005 02:29:04,21,296.576, 187.069, 0.998984, 168.340, 0.998182, 192.592, 0.998854, 187.176, 0.997309,  95.431, 0.992035
    64,10/10/2005 02:31:04,21,296.586, 188.069, 0.999164, 169.177, 0.999077, 193.546, 0.998558, 187.965, 0.999294,  95.577, 0.997581
    65,10/10/2005 02:32:04,21,296.598, 188.900, 0.997919, 169.713, 0.997965, 194.655, 0.998258, 188.003, 0.999234,  95.766, 0.999246
    66,10/10/2005 03:07:04,21,296.592, 185.824, 0.993406, 166.225, 0.990374, 190.304, 0.992608, 185.032, 0.992552,  94.519, 0.994375
    67,10/10/2005 03:12:04,21,296.595, 184.774, 0.988349, 166.092, 0.984331, 189.770, 0.987840, 184.672, 0.989552,  94.164, 0.985063
    68,10/10/2005 03:13:04,21,296.592, 186.965, 0.991218, 168.161, 0.991743, 191.965, 0.994450, 186.381, 0.993497,  94.617, 0.988191
    69,10/10/2005 03:21:04,21,296.611, 184.864, 0.987992, 167.021, 0.983614, 191.400, 0.982054, 186.759, 0.981357,  94.929, 0.980697
    70,10/10/2005 03:40:04,21,296.630, 184.996, 0.985785, 166.972, 0.982215, 192.192, 0.982809, 187.608, 0.984718,  95.559, 0.982200
    71,10/10/2005 03:41:04,21,296.618, 186.098, 0.986917, 167.397, 0.982999, 191.743, 0.985356, 186.601, 0.990108,  95.318, 0.991648
    72,10/10/2005 03:42:04,21,296.614, 185.436, 0.991776, 166.602, 0.986997, 191.378, 0.989402, 186.632, 0.994387,  95.254, 0.996100
    73,10/10/2005 03:43:04,21,296.613, 186.052, 0.997705, 166.984, 0.995620, 191.561, 0.997152, 186.951, 0.997413,  95.683, 0.995179
    74,10/10/2005 03:44:04,21,296.617, 186.531, 0.986701, 167.488, 0.984102, 191.942, 0.985883, 187.129, 0.991383,  95.211, 0.990865
    75,10/10/2005 03:45:04,21,296.619, 187.331, 0.990673, 168.113, 0.985649, 192.591, 0.984356, 187.512, 0.988699,  95.450, 0.989485
    76,10/10/2005 03:46:04,21,296.608, 189.588, 0.985218, 170.609, 0.986616, 195.022, 0.990496, 189.292, 0.990761,  96.354, 0.986086
    77,10/10/2005 03:47:04,21,296.621, 188.204, 0.988478, 168.821, 0.986386, 193.466, 0.986707, 187.744, 0.990140,  95.853, 0.985042
    78,10/10/2005 03:48:04,21,296.606, 187.742, 0.992039, 167.990, 0.989890, 191.637, 0.991547, 185.861, 0.992909,  94.598, 0.990864
    79,10/10/2005 03:50:04,21,296.606, 187.268, 0.989738, 169.059, 0.987088, 193.787, 0.989241, 188.696, 0.989365,  96.297, 0.988865
    80,10/10/2005 04:04:04,21,296.579, 186.923, 0.987637, 168.277, 0.982885, 192.716, 0.986847, 187.612, 0.987842,  95.798, 0.988978
    81,10/10/2005 04:06:04,21,296.583, 188.302, 0.989936, 169.254, 0.987763, 193.747, 0.988911, 188.295, 0.992575,  96.116, 0.991918
    82,10/10/2005 04:07:04,21,296.577, 187.624, 0.984832, 168.421, 0.983066, 193.030, 0.986586, 187.976, 0.985836,  95.997, 0.982520
    83,10/10/2005 04:08:04,21,296.581, 188.561, 0.992601, 169.676, 0.993494, 193.605, 0.996093, 188.283, 0.997849,  95.839, 0.996398
    84,10/10/2005 04:09:04,21,296.583, 186.823, 0.995918, 168.381, 0.993574, 192.786, 0.993734, 187.883, 0.997581,  95.668, 0.998409
    85,10/10/2005 04:10:04,21,296.585, 186.365, 0.995719, 168.626, 0.994989, 193.679, 0.993513, 188.558, 0.993462,  96.142, 0.993281
    86,10/10/2005 04:11:04,21,296.581, 185.010, 0.997744, 165.840, 0.995158, 190.173, 0.997218, 185.679, 0.996767,  94.730, 0.998188
    87,10/10/2005 04:12:04,21,296.575, 187.326, 0.996053, 167.786, 0.995733, 192.000, 0.997533, 187.454, 0.999352,  95.525, 0.999464
    88,10/10/2005 04:13:04,21,296.599, 184.836, 0.998910, 166.184, 0.996386, 191.263, 0.996209, 186.975, 0.996445,  95.577, 0.997562
    89,10/10/2005 04:14:04,21,296.586, 186.640, 0.999621, 167.728, 0.998005, 191.736, 0.997093, 186.707, 0.994559,  95.320, 0.993169
    90,10/10/2005 04:15:04,21,296.589, 186.326, 0.998589, 167.838, 0.996637, 192.454, 0.997757, 187.341, 0.995644,  95.850, 0.992671
    91,10/10/2005 04:16:04,21,296.586, 189.367, 0.992810, 169.792, 0.993076, 193.644, 0.994824, 187.384, 0.996816,  95.530, 0.997349
    92,10/10/2005 04:17:04,21,296.591, 186.632, 0.996687, 167.379, 0.995412, 191.955, 0.998190, 187.372, 0.997647,  95.675, 0.996676
    93,10/10/2005 04:18:04,21,296.584, 185.650, 0.996623, 167.745, 0.992991, 193.968, 0.991846, 189.144, 0.992222,  96.508, 0.991002
    94,10/10/2005 04:19:04,21,296.583, 185.741, 0.988244, 167.178, 0.982564, 192.468, 0.980373, 188.414, 0.983379,  96.024, 0.981567
    95,10/10/2005 04:21:05,21,296.579, 185.650, 0.998256, 166.633, 0.996302, 190.826, 0.997478, 186.108, 0.997115,  95.333, 0.995219
    96,10/10/2005 04:22:04,21,296.580, 184.510, 0.995778, 166.427, 0.991010, 191.156, 0.988835, 186.839, 0.987684,  95.384, 0.989812
    97,10/10/2005 04:23:04,21,296.573, 186.901, 0.990966, 168.320, 0.986900, 191.480, 0.987064, 186.498, 0.992026,  95.342, 0.991435
    98,10/10/2005 04:24:04,21,296.577, 186.875, 0.996213, 167.378, 0.993677, 191.603, 0.994678, 186.992, 0.996652,  95.387, 0.998199
    99,10/10/2005 04:25:04,21,296.563, 185.278, 0.991935, 166.162, 0.984266, 190.049, 0.983200, 185.592, 0.982724,  95.012, 0.980074
   100,10/10/2005 04:26:04,21,296.571, 187.521, 0.993631, 168.575, 0.989500, 192.789, 0.990431, 187.686, 0.991477,  95.593, 0.990552
   101,10/10/2005 04:27:04,21,296.576, 187.207, 0.992030, 167.857, 0.984502, 191.831, 0.985143, 187.021, 0.985228,  95.312, 0.988553
   102,10/10/2005 04:32:04,21,296.549, 187.538, 0.987664, 168.603, 0.986905, 192.886, 0.988561, 187.698, 0.991849,  95.553, 0.993138
   103,10/10/2005 04:33:04,21,296.529, 188.041, 0.986491, 169.309, 0.982613, 193.634, 0.984264, 187.748, 0.982891,  95.373, 0.985087
   104,10/10/2005 04:34:04,21,296.548, 183.365, 0.992246, 164.574, 0.989549, 188.887, 0.989629, 184.375, 0.991390,  93.866, 0.988862
   105,10/10/2005 04:35:04,21,296.542, 185.490, 0.995320, 166.596, 0.990799, 191.158, 0.990716, 186.152, 0.990767,  95.095, 0.990546
   106,10/10/2005 04:41:04,21,296.502, 188.076, 0.988094, 169.078, 0.987925, 193.456, 0.992081, 187.865, 0.992578,  95.580, 0.991022
   107,10/10/2005 04:42:04,21,296.510, 185.724, 0.992359, 166.107, 0.986461, 190.337, 0.986016, 185.581, 0.990324,  94.255, 0.993220
   108,10/10/2005 04:43:04,21,296.511, 185.172, 0.997769, 165.861, 0.994615, 189.828, 0.994615, 184.967, 0.995117,  94.377, 0.995322
   109,10/10/2005 04:44:04,21,296.495, 185.718, 0.993928, 167.018, 0.987723, 191.165, 0.990337, 186.528, 0.995275,  95.164, 0.997883
   110,10/10/2005 04:46:04,21,296.493, 188.009, 0.991811, 169.231, 0.989337, 193.306, 0.992012, 188.136, 0.995196,  95.655, 0.993827
   111,10/10/2005 04:52:04,21,296.490, 184.189, 0.991014, 165.514, 0.988206, 190.294, 0.988042, 186.180, 0.990568,  95.312, 0.990218
   112,10/10/2005 05:06:04,21,296.501, 187.929, 0.994810, 169.206, 0.993797, 193.155, 0.996205, 188.339, 0.998573,  95.670, 0.999514
   113,10/10/2005 05:07:04,21,296.482, 187.978, 0.992665, 169.317, 0.991865, 193.675, 0.995076, 188.364, 0.997628,  95.989, 0.994374
   114,10/10/2005 05:08:04,21,296.510, 185.854, 0.997203, 168.081, 0.995575, 193.173, 0.997698, 188.531, 0.999024,  96.326, 0.999673
   115,10/10/2005 05:09:04,21,296.499, 187.544, 0.984297, 169.550, 0.983623, 195.253, 0.988793, 190.064, 0.990161,  97.107, 0.985891
   116,10/10/2005 05:10:04,21,296.491, 187.480, 0.996800, 168.366, 0.994544, 192.931, 0.996722, 187.934, 0.997581,  95.723, 0.993872
   117,10/10/2005 05:11:04,21,296.499, 184.788, 0.993688, 166.446, 0.988789, 192.044, 0.990266, 187.974, 0.994101,  95.938, 0.992179
   118,10/10/2005 05:12:05,21,296.506, 185.291, 0.991370, 166.580, 0.980647, 191.112, 0.980355, 187.224, 0.983272,  95.806, 0.989510
   119,10/10/2005 05:14:04,21,296.515, 186.782, 0.995401, 167.995, 0.990853, 192.451, 0.993754, 187.117, 0.997363,  95.353, 0.995385
   120,10/10/2005 05:15:04,21,296.508, 185.043, 0.993435, 166.021, 0.990348, 190.687, 0.992429, 186.827, 0.994635,  95.541, 0.998009
   121,10/10/2005 05:16:04,21,296.519, 186.995, 0.999020, 168.049, 0.994707, 192.180, 0.994656, 187.286, 0.992264,  95.662, 0.988041
   122,10/10/2005 05:17:04,21,296.511, 187.075, 0.999704, 168.940, 0.998772, 193.910, 0.999121, 188.640, 0.998915,  96.407, 0.997111
   123,10/10/2005 05:18:04,21,296.518, 185.186, 0.993077, 166.262, 0.984779, 190.931, 0.983419, 186.635, 0.988125,  95.358, 0.991886
   124,10/10/2005 05:19:04,21,296.514, 188.039, 0.993210, 169.679, 0.993385, 194.122, 0.995544, 189.259, 0.998381,  96.679, 0.998793
   125,10/10/2005 05:20:04,21,296.513, 184.245, 0.993052, 165.717, 0.988354, 190.819, 0.988237, 186.655, 0.991923,  95.404, 0.996289
   126,10/10/2005 05:21:04,21,296.522, 186.493, 0.997180, 167.696, 0.993231, 191.798, 0.993050, 186.929, 0.997198,  95.493, 0.998596
   127,10/10/2005 05:22:04,21,296.522, 186.175, 0.995960, 167.301, 0.992008, 191.937, 0.993616, 187.042, 0.994561,  95.211, 0.994446
   128,10/10/2005 05:23:04,21,296.530, 186.785, 0.988646, 167.932, 0.985192, 192.814, 0.990178, 187.802, 0.996945,  95.777, 0.998395
   129,10/10/2005 05:24:04,21,296.521, 185.587, 0.993688, 167.105, 0.989993, 192.053, 0.990073, 187.330, 0.997559,  95.914, 0.999575
   130,10/10/2005 05:25:04,21,296.527, 187.903, 0.993885, 169.032, 0.994954, 193.547, 0.998345, 188.186, 0.998734,  96.077, 0.996326
   131,10/10/2005 05:26:04,21,296.537, 187.132, 0.998895, 168.439, 0.999364, 193.210, 0.999724, 188.108, 0.999214,  96.102, 0.997644
   132,10/10/2005 05:27:04,21,296.543, 187.987, 0.997340, 168.861, 0.994680, 192.833, 0.995481, 187.258, 0.994270,  95.195, 0.988013
   133,10/10/2005 05:28:04,21,296.533, 184.298, 0.998066, 165.492, 0.995929, 190.471, 0.996544, 185.687, 0.998445,  95.004, 0.998644
   134,10/10/2005 05:29:04,21,296.538, 187.133, 0.992224, 168.708, 0.993389, 193.239, 0.996262, 188.038, 0.996551,  95.711, 0.994391
   135,10/10/2005 05:30:04,21,296.529, 184.883, 0.995243, 166.447, 0.992805, 191.087, 0.994535, 186.533, 0.996397,  95.178, 0.998347
   136,10/10/2005 05:31:04,21,296.533, 186.004, 0.993892, 167.507, 0.994507, 191.672, 0.996096, 186.245, 0.997625,  94.657, 0.997659
   137,10/10/2005 05:32:04,21,296.539, 185.052, 0.994888, 166.138, 0.994263, 190.219, 0.992211, 184.417, 0.992878,  93.964, 0.987504
   138,10/10/2005 05:36:04,21,296.529, 187.832, 0.996221, 168.930, 0.994713, 192.758, 0.995901, 187.689, 0.995659,  95.777, 0.993817
   139,10/10/2005 05:37:04,21,296.529, 186.485, 0.990604, 167.173, 0.988123, 191.639, 0.990813, 186.758, 0.994033,  95.063, 0.995869
   140,10/10/2005 05:38:04,21,296.540, 187.992, 0.993845, 170.251, 0.994506, 195.316, 0.993687, 190.083, 0.993210,  97.099, 0.993766
   141,10/10/2005 05:39:04,21,296.516, 186.739, 0.995574, 167.159, 0.994272, 191.506, 0.996796, 186.145, 0.998151,  94.790, 0.999141
   142,10/10/2005 05:40:04,21,296.524, 186.680, 0.994725, 168.356, 0.996499, 193.585, 0.998151, 188.866, 0.998574,  96.515, 0.997725
   143,10/10/2005 05:42:04,21,296.515, 187.835, 0.988052, 169.260, 0.982188, 193.379, 0.986800, 188.090, 0.989368,  95.698, 0.989689
   144,10/10/2005 05:44:04,21,296.519, 186.220, 0.996613, 167.045, 0.992352, 191.609, 0.992414, 187.007, 0.994736,  95.356, 0.995186
   145,10/10/2005 05:45:04,21,296.503, 186.907, 0.992236, 167.695, 0.991303, 191.944, 0.992495, 186.478, 0.993365,  95.094, 0.992188
   146,10/10/2005 05:46:04,21,296.504, 186.687, 0.994616, 167.870, 0.992969, 192.453, 0.995081, 187.132, 0.997225,  95.382, 0.996041
   147,10/10/2005 05:47:04,21,296.500, 187.110, 0.992884, 167.687, 0.991385, 191.882, 0.994575, 186.289, 0.996586,  94.791, 0.996629
   148,10/10/2005 05:49:04,21,296.506, 185.461, 0.993849, 166.707, 0.988534, 191.113, 0.987352, 185.837, 0.994136,  94.964, 0.993161
   149,10/10/2005 05:50:04,21,296.503, 186.961, 0.997946, 167.949, 0.996645, 192.350, 0.996700, 187.000, 0.998300,  95.273, 0.997754
   150,10/10/2005 05:51:04,21,296.502, 186.349, 0.991417, 167.318, 0.989604, 191.418, 0.992115, 186.512, 0.994532,  95.215, 0.994385
   151,10/10/2005 05:52:04,21,296.510, 186.512, 0.990692, 167.502, 0.991568, 191.989, 0.996496, 187.000, 0.998922,  95.574, 0.996964
   152,10/10/2005 05:53:04,21,296.492, 186.022, 0.998063, 167.667, 0.996373, 192.756, 0.997164, 187.929, 0.999511,  95.723, 0.999648
   153,10/10/2005 05:54:05,21,296.497, 188.593, 0.995819, 168.513, 0.996128, 191.926, 0.997723, 186.226, 0.997984,  94.992, 0.997941
   154,10/10/2005 05:56:04,21,296.493, 186.321, 0.995670, 167.542, 0.993456, 192.041, 0.995054, 187.042, 0.997207,  95.237, 0.995905
   155,10/10/2005 05:57:04,21,296.496, 187.966, 0.996181, 168.256, 0.994285, 192.651, 0.994388, 187.284, 0.993286,  95.871, 0.991061
   156,10/10/2005 05:58:04,21,296.494, 187.065, 0.995277, 167.588, 0.991679, 191.326, 0.991045, 186.181, 0.990459,  95.189, 0.989229
   157,10/10/2005 05:59:04,21,296.485, 189.797, 0.989485, 170.127, 0.990200, 194.317, 0.991702, 188.083, 0.993239,  95.867, 0.995088
   158,10/10/2005 06:00:04,21,296.485, 187.356, 0.992449, 169.059, 0.990331, 194.052, 0.988335, 188.693, 0.992618,  96.181, 0.989860
   159,10/10/2005 06:01:04,21,296.490, 184.349, 0.997783, 165.634, 0.994728, 190.696, 0.995456, 186.249, 0.997959,  95.369, 0.999357
   160,10/10/2005 06:02:04,21,296.472, 186.806, 0.992425, 168.313, 0.990116, 193.089, 0.994304, 187.814, 0.997349,  95.643, 0.997182
   161,10/10/2005 06:03:04,21,296.468, 183.915, 0.989646, 165.730, 0.985662, 190.248, 0.988599, 186.123, 0.993231,  95.282, 0.998268
   162,10/10/2005 06:04:04,21,296.474, 187.132, 0.997051, 168.213, 0.994534, 192.683, 0.995981, 187.333, 0.992746,  95.531, 0.989627
   163,10/10/2005 06:05:04,21,296.463, 189.810, 0.993741, 170.789, 0.995080, 195.154, 0.995667, 189.220, 0.996637,  96.354, 0.998272
   164,10/10/2005 06:06:04,21,296.456, 186.770, 0.998579, 167.281, 0.998054, 191.779, 0.998751, 186.739, 0.999609,  95.345, 0.999452
   165,10/10/2005 06:07:04,21,296.450, 184.810, 0.998164, 166.098, 0.996080, 190.610, 0.995971, 186.098, 0.994033,  95.176, 0.993549
   166,10/10/2005 06:08:05,21,296.432, 187.327, 0.995293, 168.012, 0.993773, 191.994, 0.994496, 187.531, 0.995391,  95.970, 0.992338
   167,10/10/2005 06:11:04,21,296.410, 184.740, 0.990081, 166.779, 0.986921, 190.578, 0.987932, 186.423, 0.986508,  95.207, 0.983606
   168,10/10/2005 06:13:04,21,296.411, 186.087, 0.989452, 167.727, 0.984588, 192.702, 0.985581, 187.789, 0.984815,  95.431, 0.981175
   169,10/10/2005 06:14:04,21,296.402, 186.758, 0.999163, 167.737, 0.997658, 192.147, 0.995964, 187.321, 0.995355,  95.490, 0.992001
   170,10/10/2005 06:15:04,21,296.391, 185.814, 0.989125, 167.838, 0.984169, 193.425, 0.988821, 189.116, 0.992424,  96.821, 0.989943
   171,10/10/2005 06:16:04,21,296.392, 187.041, 0.994533, 168.222, 0.990746, 192.566, 0.994437, 187.638, 0.991920,  95.851, 0.988451
   172,10/10/2005 06:18:04,21,296.387, 186.165, 0.997260, 167.435, 0.994088, 192.061, 0.993331, 187.229, 0.994504,  95.465, 0.991112
   173,10/10/2005 06:19:04,21,296.375, 185.472, 0.997995, 166.896, 0.996858, 191.072, 0.996506, 186.076, 0.993596,  94.753, 0.987452
   174,10/10/2005 06:20:04,21,296.380, 186.618, 0.985325, 168.288, 0.980315, 192.872, 0.983340, 188.095, 0.988443,  96.323, 0.989213
   175,10/10/2005 06:52:04,21,296.547, 187.753, 0.993794, 168.161, 0.989755, 192.414, 0.988491, 186.587, 0.986307,  95.037, 0.980457
   176,10/10/2005 06:53:04,21,296.562, 188.086, 0.994438, 168.334, 0.991639, 192.141, 0.993726, 187.669, 0.993396,  95.659, 0.988398
   177,10/10/2005 06:57:04,21,296.577, 189.324, 0.982574, 169.672, 0.980416, 193.687, 0.985209, 188.370, 0.989041,  95.418, 0.985977